NOAA-19
1 33591U 09005A 09350.83820253 .00000179 00000-0 12322-3 0 03593
2 33591 098.7682 292.0267 0014968 086.3706 273.9206 14.11009081044191
HUBBLE
1 20580U 90037B 09351.11789052 .00000316 00000-0 11404-4 0 4905
2 20580 028.4720 348.3487 0003274 070.8937 289.2065 15.00866238877369
ISS
1 25544U 98067A 09351.83978130 .00019369 00000-0 12201-3 0 1918
2 25544 051.6444 082.8637 0008135 090.4642 008.4402 15.76670945634890
CO-58
1 28895U 05043F 09349.70424699 .00000113 00000-0 33158-4 0 04657
2 28895 098.0372 234.9884 0018622 137.9983 222.2634 14.59824611220219
FALCON
1 30776U 07006E 09349.67418475 .00000382 00000-0 30564-4 0 07255
2 30776 035.4332 078.1887 0001505 003.3904 356.6821 15.03393607152426
MAST
1 31126U 07012K 09351.69840610 .00000089 00000-0 30346-4 0 7563
2 31126 097.9647 037.8530 0095720 070.2237 290.9326 14.53539127141699
CAPE1
1 31130U 07012P 09350.67753082 .00000004 00000-0 11339-4 0 7682
2 31130 097.9671 034.6665 0103695 080.0761 281.2118 14.52114884141170
COMPASS
1 32787U 08021E 09350.71130591 .00000173 00000-0 28617-4 0 05492
2 32787 097.9216 052.7741 0016252 155.9382 204.2581 14.81714852088478
AAUSAT2
1 32788U 08021F 09349.65084125 .00000010 00000-0 80165-5 0 05380
2 32788 097.9211 051.8151 0015583 160.4385 199.7430 14.81843467088329
DO-64
1 32789U 08021G 09350.75134347 .00000595 00000-0 81800-4 0 05706
2 32789 097.9261 053.1994 0016093 155.2042 204.9947 14.81889729088484
CO-66
1 32791U 08021J 09351.72159844 .00000078 00000-0 16727-4 0 5359
2 32791 097.9227 053.8033 0016268 150.9385 209.2727 14.81527917 88589
RS-30
1 32953U 08025A 09350.82064820 .00000010 00000-0 00000 0 0 4775
2 32953 082.5009 143.0736 0019421 139.0929 221.1617 12.43003223 71088
TACSAT-3
1 35001U 09028A 09350.91510701 .00002986 00000-0 78891-4 0 01926
2 35001 040.4560 227.3020 0021986 079.0456 281.2834 15.39786787032513
PHARMSAT
1 35002U 09028B 09349.90478058 .00002521 00000-0 65942-4 0 01650
2 35002 040.4691 232.1590 0024949 076.0720 284.2870 15.40477773032368
HAWKSAT1
1 35003U 09028C 09350.97258063 .00005580 00000-0 13327-3 0 01705
2 35003 040.4612 224.2274 0023350 090.5495 269.8001 15.41721606032552
CP6
1 35004U 09028D 09350.96369657 .00006594 00000-0 15529-3 0 01710
2 35004 040.4625 224.1693 0023539 088.9949 271.3565 15.41935516032544
AEROCUB3
1 35005U 09028E 09351.89850303 .00009535 00000-0 22302-3 0 1677
2 35005 040.4716 219.1687 0023736 091.9698 268.3858 15.41783781 32688
DRAGNSAT
1 35690U 09038B 09351.49155758 .00055936 12285-4 19152-3 0 1426
2 35690 051.6360 074.5036 0003617 289.3331 070.7290 15.90167210 22198
POLLUX
1 35693U 09038E 09351.50290216 .00050050 00000-0 17367-3 0 1505
2 35693 051.6372 075.3579 0001778 220.4976 139.6425 15.88667074 22153
CASTOR
1 35694U 09038F 09351.53433688 .00021553 00000-0 93068-4 0 1320
2 35694 051.6394 077.1260 0003322 196.6808 163.4617 15.84189146 22131
METEOR-M
1 35865U 09049A 09350.66044659 .00000176 00000-0 10000-3 0 793
2 35865 098.7871 040.5251 0002599 154.8513 205.2734 14.21828345 12787
